This demonstration page uses our WeatherBlox Daily Observations layout. Learn more.

Left ArrowRight Arrow

Hourly Observations for February 27, 2017

Temp ( °F °C ) Dew Point ( °F °C ) Humidity (%) Winds ( mph kmh ) Pressure ( in mb ) Visibility ( mi km ) Precip ( " mm )
12:53 am 00:53 Clear 50 10 23 -5 35 35 E 3 6 29.82 1010 10 16 0.00 0.00
1:53 am 01:53 Clear 46 7.8 23 -5 40 40 N 7 11 29.91 1013 10 16 0.00 0.00
2:53 am 02:53 Clear 44 6.7 24 -4.4 45 45 W 3 6 29.83 1010 10 16 0.00 0.00
3:53 am 03:53 Clear 43 6.1 24 -4.4 47 47 N 5 7 29.83 1010 10 16 0.00 0.00
4:53 am 04:53 Clear 39 3.9 24 -4.4 55 55 N 8 13 29.84 1010 10 16 0.00 0.00
5:53 am 05:53 Clear 37 2.8 24 -4.4 59 59 N 7 11 29.85 1011 10 16 0.00 0.00
6:53 am 06:53 Clear 36 2.2 24 -4.4 62 62 E 6 9 29.87 1012 10 16 0.00 0.00
7:53 am 07:53 Sunny 38 3.3 25 -3.9 60 60 Calm 29.89 1012 10 16 0.00 0.00
8:53 am 08:53 Sunny 49 9.4 26 -3.3 41 41 Calm 29.90 1013 10 16 0.00 0.00
9:53 am 09:53 Sunny 65 18.3 23 -5 20 20 W 12 19 29.88 1012 10 16 0.00 0.00
10:53 am 10:53 Sunny 69 20.6 23 -5 17 17 WSW 13 20 29.86 1011 10 16 0.00 0.00
11:53 am 11:53 Sunny 72 22.2 22 -5.6 15 15 SSW 12 19 29.85 1011 10 16 0.00 0.00
12:53 pm 12:53 Sunny 75 23.9 20 -6.7 12 12 WSW 25 41 29.82 1010 10 16 0.00 0.00
1:53 pm 13:53 Sunny 78 25.6 17 -8.3 10 10 WSW 23 37 29.78 1009 10 16 0.00 0.00
2:53 pm 14:53 Sunny 78 25.6 18 -7.8 10 10 W 23 37 29.76 1008 10 16 0.00 0.00
3:53 pm 15:53 Sunny 77 25 18 -7.8 11 11 W 17 28 29.75 1007 10 16 0.00 0.00
4:53 pm 16:53 Sunny 77 25 16 -8.9 10 10 W 12 19 29.76 1008 10 16 0.00 0.00
5:53 pm 17:53 Sunny 75 23.9 15 -9.4 10 10 W 12 19 29.78 1008 10 16 0.00 0.00
6:53 pm 18:53 Clear 68 20 16 -8.9 13 13 W 7 11 29.80 1009 10 16 0.00 0.00
7:53 pm 19:53 Clear 66 18.9 18 -7.8 16 16 NW 6 9 29.80 1009 10 16 0.00 0.00
8:53 pm 20:53 Clear 61 16.1 19 -7.2 20 20 NNW 6 9 29.80 1009 10 16 0.00 0.00
9:53 pm 21:53 Clear 59 15 21 -6.1 23 23 SE 6 9 29.80 1009 10 16 0.00 0.00
10:53 pm 22:53 Clear 54 12.2 21 -6.1 28 28 S 3 6 29.82 1010 10 16 0.00 0.00
11:53 pm 23:53 Clear 52 11.1 21 -6.1 30 30 E 5 7 29.82 1010 10 16 0.00 0.00

Powered by AerisWeather